SP8IZA-1 Weather Reports


Display with metric or nautical units.
time (UTC)temp
F
wind
direction
speed
MPH
gust
MPH
rain 1hr
in
rain 24hr
in
rain mn
in
humidity
%
barometer
mb
20260506125842 90 0 0.0 0.0 0.00 0.00 0.00 33 1003.4
20260506125341 89 0 0.0 0.0 0.00 0.00 0.00 34 1003.3
20260506124841 91 0 0.0 0.0 0.00 0.00 0.00 33 1003.4
20260506124340 91 0 0.0 0.0 0.00 0.00 0.00 33 1003.4
20260506123840 88 0 0.0 0.0 0.00 0.00 0.00 34 1003.4
20260506123339 88 0 0.0 0.0 0.00 0.00 0.00 34 1003.3
20260506122839 89 0 0.0 0.0 0.00 0.00 0.00 34 1003.3
20260506122338 89 0 0.0 0.0 0.00 0.00 0.00 34 1003.3
20260506121838 90 0 0.0 0.0 0.00 0.00 0.00 34 1003.3
20260506121337 89 0 0.0 0.0 0.00 0.00 0.00 34 1003.3
20260506120837 89 0 0.0 0.0 0.00 0.00 0.00 34 1003.3
20260506120336 90 0 0.0 0.0 0.00 0.00 0.00 33 1003.3
20260506115836 91 0 0.0 0.0 0.00 0.00 0.00 33 1003.3
20260506115335 91 0 0.0 0.0 0.00 0.00 0.00 33 1003.3
20260506114835 91 0 0.0 0.0 0.00 0.00 0.00 33 1003.3
20260506114335 91 0 0.0 0.0 0.00 0.00 0.00 33 1003.2
20260506113834 91 0 0.0 0.0 0.00 0.00 0.00 33 1003.2
20260506113333 90 0 0.0 0.0 0.00 0.00 0.00 34 1003.1
20260506112833 90 0 0.0 0.0 0.00 0.00 0.00 34 1003.2
20260506112332 90 0 0.0 0.0 0.00 0.00 0.00 33 1003.1
20260506111832 90 0 0.0 0.0 0.00 0.00 0.00 34 1003.2
20260506111331 89 0 0.0 0.0 0.00 0.00 0.00 34 1003.2
20260506110831 88 0 0.0 0.0 0.00 0.00 0.00 34 1003.3
20260506110330 87 0 0.0 0.0 0.00 0.00 0.00 34 1003.3
20260506105830 85 0 0.0 0.0 0.00 0.00 0.00 35 1003.2
20260506105329 87 0 0.0 0.0 0.00 0.00 0.00 34 1003.3
20260506104829 88 0 0.0 0.0 0.00 0.00 0.00 34 1003.3
20260506104328 88 0 0.0 0.0 0.00 0.00 0.00 34 1003.3
20260506103828 88 0 0.0 0.0 0.00 0.00 0.00 34 1003.3
20260506103327 88 0 0.0 0.0 0.00 0.00 0.00 34 1003.3
20260506102827 87 0 0.0 0.0 0.00 0.00 0.00 34 1003.3
20260506102326 87 0 0.0 0.0 0.00 0.00 0.00 34 1003.3
20260506101826 86 0 0.0 0.0 0.00 0.00 0.00 34 1003.4
20260506101325 85 0 0.0 0.0 0.00 0.00 0.00 35 1003.4
20260506100825 85 0 0.0 0.0 0.00 0.00 0.00 35 1003.4
20260506100324 85 0 0.0 0.0 0.00 0.00 0.00 35 1003.3
20260506095824 85 0 0.0 0.0 0.00 0.00 0.00 35 1003.4
20260506095323 83 0 0.0 0.0 0.00 0.00 0.00 35 1003.5
20260506094823 82 0 0.0 0.0 0.00 0.00 0.00 36 1003.4
20260506094322 82 0 0.0 0.0 0.00 0.00 0.00 36 1003.5
20260506093822 82 0 0.0 0.0 0.00 0.00 0.00 36 1003.4
20260506093321 83 0 0.0 0.0 0.00 0.00 0.00 36 1003.5
20260506092821 82 0 0.0 0.0 0.00 0.00 0.00 36 1003.5
20260506092320 82 0 0.0 0.0 0.00 0.00 0.00 36 1003.5
20260506091820 82 0 0.0 0.0 0.00 0.00 0.00 36 1003.5
20260506091319 83 0 0.0 0.0 0.00 0.00 0.00 35 1003.4
20260506090819 83 0 0.0 0.0 0.00 0.00 0.00 35 1003.4
20260506090318 83 0 0.0 0.0 0.00 0.00 0.00 35 1003.4
20260506085818 82 0 0.0 0.0 0.00 0.00 0.00 36 1003.3
20260506085317 82 0 0.0 0.0 0.00 0.00 0.00 36 1003.3
20260506084817 81 0 0.0 0.0 0.00 0.00 0.00 36 1003.3
20260506084316 81 0 0.0 0.0 0.00 0.00 0.00 36 1003.3
20260506083816 80 0 0.0 0.0 0.00 0.00 0.00 36 1003.3
20260506083315 79 0 0.0 0.0 0.00 0.00 0.00 36 1003.3
20260506082815 79 0 0.0 0.0 0.00 0.00 0.00 36 1003.4
20260506082314 78 0 0.0 0.0 0.00 0.00 0.00 37 1003.4
20260506081814 78 0 0.0 0.0 0.00 0.00 0.00 37 1003.4
20260506081313 77 0 0.0 0.0 0.00 0.00 0.00 37 1003.3
20260506080813 76 0 0.0 0.0 0.00 0.00 0.00 37 1003.4
20260506080312 74 0 0.0 0.0 0.00 0.00 0.00 38 1003.3
20260506073309 74 0 0.0 0.0 0.00 0.00 0.00 38 1003.7
20260506072809 73 0 0.0 0.0 0.00 0.00 0.00 38 1003.7
20260506072308 73 0 0.0 0.0 0.00 0.00 0.00 38 1003.7
20260506071808 73 0 0.0 0.0 0.00 0.00 0.00 38 1003.7
20260506071307 72 0 0.0 0.0 0.00 0.00 0.00 38 1003.7
20260506070807 71 0 0.0 0.0 0.00 0.00 0.00 38 1003.7
20260506070306 71 0 0.0 0.0 0.00 0.00 0.00 38 1003.7
20260506062305 68 0 0.0 0.0 0.00 0.00 0.00 39 1003.7
20260506061802 67 0 0.0 0.0 0.00 0.00 0.00 40 1003.8
20260506061301 66 0 0.0 0.0 0.00 0.00 0.00 40 1003.8
20260506060801 65 0 0.0 0.0 0.00 0.00 0.00 40 1003.8
20260506060300 65 0 0.0 0.0 0.00 0.00 0.00 40 1003.7
20260506051255 57 0 0.0 0.0 0.00 0.00 0.00 42 1004.2
20260506050755 56 0 0.0 0.0 0.00 0.00 0.00 42 1004.2
20260506050254 55 0 0.0 0.0 0.00 0.00 0.00 43 1004.3
20260506044753 53 0 0.0 0.0 0.00 0.00 0.00 43 1004.3
20260506044252 52 0 0.0 0.0 0.00 0.00 0.00 43 1004.3
20260506043752 51 0 0.0 0.0 0.00 0.00 0.00 44 1004.2
20260506043251 51 0 0.0 0.0 0.00 0.00 0.00 44 1004.3
20260506042751 51 0 0.0 0.0 0.00 0.00 0.00 44 1004.4
20260506042250 50 0 0.0 0.0 0.00 0.00 0.00 44 1004.4
20260506041750 50 0 0.0 0.0 0.00 0.00 0.00 44 1004.4
20260506041249 50 0 0.0 0.0 0.00 0.00 0.00 44 1004.4
20260506040749 49 0 0.0 0.0 0.00 0.00 0.00 44 1004.4
20260506040248 49 0 0.0 0.0 0.00 0.00 0.00 44 1004.4
20260506035748 49 0 0.0 0.0 0.00 0.00 0.00 44 1004.4
20260506035247 48 0 0.0 0.0 0.00 0.00 0.00 44 1004.3
20260506034747 48 0 0.0 0.0 0.00 0.00 0.00 44 1004.3
20260506034246 48 0 0.0 0.0 0.00 0.00 0.00 44 1004.3
20260506033746 48 0 0.0 0.0 0.00 0.00 0.00 44 1004.3
20260506033245 48 0 0.0 0.0 0.00 0.00 0.00 44 1004.3
20260506032745 48 0 0.0 0.0 0.00 0.00 0.00 44 1004.2
20260506032244 48 0 0.0 0.0 0.00 0.00 0.00 44 1004.3
20260506031744 48 0 0.0 0.0 0.00 0.00 0.00 44 1004.3
20260506031243 48 0 0.0 0.0 0.00 0.00 0.00 44 1004.2
20260506030743 48 0 0.0 0.0 0.00 0.00 0.00 44 1004.3
20260506030242 48 0 0.0 0.0 0.00 0.00 0.00 44 1004.3
20260506025742 49 0 0.0 0.0 0.00 0.00 0.00 44 1004.3
20260506025241 49 0 0.0 0.0 0.00 0.00 0.00 44 1004.4
20260506024741 49 0 0.0 0.0 0.00 0.00 0.00 44 1004.4
20260506024240 49 0 0.0 0.0 0.00 0.00 0.00 44 1004.5
20260506023740 49 0 0.0 0.0 0.00 0.00 0.00 44 1004.4
20260506023239 48 0 0.0 0.0 0.00 0.00 0.00 44 1004.4
20260506022739 48 0 0.0 0.0 0.00 0.00 0.00 44 1004.4
20260506022238 48 0 0.0 0.0 0.00 0.00 0.00 44 1004.4
20260506021738 48 0 0.0 0.0 0.00 0.00 0.00 44 1004.4
20260506021237 49 0 0.0 0.0 0.00 0.00 0.00 44 1004.4
20260506020737 49 0 0.0 0.0 0.00 0.00 0.00 44 1004.4
20260506020236 49 0 0.0 0.0 0.00 0.00 0.00 44 1004.5
20260506015736 49 0 0.0 0.0 0.00 0.00 0.00 44 1004.5
20260506015235 49 0 0.0 0.0 0.00 0.00 0.00 44 1004.5
20260506014735 49 0 0.0 0.0 0.00 0.00 0.00 44 1004.5
20260506014234 50 0 0.0 0.0 0.00 0.00 0.00 44 1004.5
20260506013734 50 0 0.0 0.0 0.00 0.00 0.00 44 1004.5
20260506013233 50 0 0.0 0.0 0.00 0.00 0.00 44 1004.4
20260506012733 50 0 0.0 0.0 0.00 0.00 0.00 44 1004.4
20260506012232 50 0 0.0 0.0 0.00 0.00 0.00 44 1004.4
20260506011732 50 0 0.0 0.0 0.00 0.00 0.00 44 1004.4
20260506011231 50 0 0.0 0.0 0.00 0.00 0.00 44 1004.4
20260506010731 50 0 0.0 0.0 0.00 0.00 0.00 44 1004.4
20260506010230 50 0 0.0 0.0 0.00 0.00 0.00 44 1004.3
20260506005730 51 0 0.0 0.0 0.00 0.00 0.00 44 1004.3
20260506005229 51 0 0.0 0.0 0.00 0.00 0.00 44 1004.4
20260506004729 51 0 0.0 0.0 0.00 0.00 0.00 44 1004.3
20260506004228 51 0 0.0 0.0 0.00 0.00 0.00 44 1004.4
20260506003728 51 0 0.0 0.0 0.00 0.00 0.00 44 1004.4
20260506003227 51 0 0.0 0.0 0.00 0.00 0.00 44 1004.4
20260506002727 51 0 0.0 0.0 0.00 0.00 0.00 44 1004.4
20260506002226 52 0 0.0 0.0 0.00 0.00 0.00 44 1004.3
20260506001726 52 0 0.0 0.0 0.00 0.00 0.00 44 1004.3
20260506001225 52 0 0.0 0.0 0.00 0.00 0.00 44 1004.3
20260506000725 52 0 0.0 0.0 0.00 0.00 0.00 43 1004.3
20260506000226 52 0 0.0 0.0 0.00 0.00 0.00 43 1004.3
20260505235724 52 0 0.0 0.0 0.00 0.00 0.00 43 1004.3
20260505235223 53 0 0.0 0.0 0.00 0.00 0.00 43 1004.3
20260505234723 53 0 0.0 0.0 0.00 0.00 0.00 43 1004.4
20260505234222 53 0 0.0 0.0 0.00 0.00 0.00 43 1004.4
20260505233722 53 0 0.0 0.0 0.00 0.00 0.00 43 1004.4
20260505233221 53 0 0.0 0.0 0.00 0.00 0.00 43 1004.3
20260505232721 54 0 0.0 0.0 0.00 0.00 0.00 43 1004.3
20260505232220 54 0 0.0 0.0 0.00 0.00 0.00 43 1004.3
20260505231720 54 0 0.0 0.0 0.00 0.00 0.00 43 1004.4
20260505231219 55 0 0.0 0.0 0.00 0.00 0.00 43 1004.3
20260505230719 55 0 0.0 0.0 0.00 0.00 0.00 43 1004.3
20260505230218 55 0 0.0 0.0 0.00 0.00 0.00 43 1004.3
20260505225718 55 0 0.0 0.0 0.00 0.00 0.00 43 1004.3
20260505225217 55 0 0.0 0.0 0.00 0.00 0.00 43 1004.3
20260505224717 55 0 0.0 0.0 0.00 0.00 0.00 43 1004.3
20260505224216 55 0 0.0 0.0 0.00 0.00 0.00 43 1004.3
20260505223716 56 0 0.0 0.0 0.00 0.00 0.00 43 1004.3
20260505223215 56 0 0.0 0.0 0.00 0.00 0.00 42 1004.4
20260505222715 56 0 0.0 0.0 0.00 0.00 0.00 42 1004.4
20260505222214 57 0 0.0 0.0 0.00 0.00 0.00 42 1004.4
20260505221714 57 0 0.0 0.0 0.00 0.00 0.00 42 1004.4
20260505221213 58 0 0.0 0.0 0.00 0.00 0.00 42 1004.3
20260505220713 59 0 0.0 0.0 0.00 0.00 0.00 42 1004.3
20260505220212 59 0 0.0 0.0 0.00 0.00 0.00 42 1004.4
20260505215712 60 0 0.0 0.0 0.00 0.00 0.00 41 1004.4
20260505215211 61 0 0.0 0.0 0.00 0.00 0.00 41 1004.4
20260505214711 61 0 0.0 0.0 0.00 0.00 0.00 41 1004.4
20260505214210 61 0 0.0 0.0 0.00 0.00 0.00 41 1004.3
20260505213710 61 0 0.0 0.0 0.00 0.00 0.00 41 1004.4
20260505213209 61 0 0.0 0.0 0.00 0.00 0.00 41 1004.3
20260505212709 61 0 0.0 0.0 0.00 0.00 0.00 41 1004.3
20260505212208 61 0 0.0 0.0 0.00 0.00 0.00 41 1004.2
20260505211708 61 0 0.0 0.0 0.00 0.00 0.00 41 1004.2
20260505211207 61 0 0.0 0.0 0.00 0.00 0.00 41 1004.2
20260505210707 61 0 0.0 0.0 0.00 0.00 0.00 41 1004.2
20260505210206 62 0 0.0 0.0 0.00 0.00 0.00 41 1004.3
20260505205706 61 0 0.0 0.0 0.00 0.00 0.00 41 1004.3
20260505205205 61 0 0.0 0.0 0.00 0.00 0.00 41 1004.2
20260505204705 61 0 0.0 0.0 0.00 0.00 0.00 41 1004.2
20260505204204 61 0 0.0 0.0 0.00 0.00 0.00 41 1004.2
20260505203704 61 0 0.0 0.0 0.00 0.00 0.00 41 1004.2
20260505203203 61 0 0.0 0.0 0.00 0.00 0.00 41 1004.2
20260505202703 61 0 0.0 0.0 0.00 0.00 0.00 41 1004.2
20260505202202 61 0 0.0 0.0 0.00 0.00 0.00 41 1004.2
20260505201702 62 0 0.0 0.0 0.00 0.00 0.00 41 1004.2
20260505201201 62 0 0.0 0.0 0.00 0.00 0.00 41 1004.2
20260505200701 62 0 0.0 0.0 0.00 0.00 0.00 41 1004.2
20260505200200 63 0 0.0 0.0 0.00 0.00 0.00 41 1004.2
20260505195700 63 0 0.0 0.0 0.00 0.00 0.00 41 1004.1
20260505195159 63 0 0.0 0.0 0.00 0.00 0.00 41 1004.1
20260505194659 64 0 0.0 0.0 0.00 0.00 0.00 40 1004.1
20260505194158 64 0 0.0 0.0 0.00 0.00 0.00 40 1004.1
20260505193658 64 0 0.0 0.0 0.00 0.00 0.00 40 1004.1
20260505193157 65 0 0.0 0.0 0.00 0.00 0.00 40 1004.2
20260505192657 65 0 0.0 0.0 0.00 0.00 0.00 40 1004.2
20260505192156 65 0 0.0 0.0 0.00 0.00 0.00 40 1004.1
20260505191656 65 0 0.0 0.0 0.00 0.00 0.00 40 1004.1
20260505191155 66 0 0.0 0.0 0.00 0.00 0.00 40 1004.1
20260505190655 66 0 0.0 0.0 0.00 0.00 0.00 40 1004.1
20260505190154 66 0 0.0 0.0 0.00 0.00 0.00 40 1004.2
20260505185654 67 0 0.0 0.0 0.00 0.00 0.00 40 1004.2
20260505185153 67 0 0.0 0.0 0.00 0.00 0.00 40 1004.1
20260505184653 68 0 0.0 0.0 0.00 0.00 0.00 40 1004.1
20260505184153 68 0 0.0 0.0 0.00 0.00 0.00 39 1004.1
20260505183652 69 0 0.0 0.0 0.00 0.00 0.00 39 1004.1
20260505183151 69 0 0.0 0.0 0.00 0.00 0.00 39 1004.1
20260505182651 69 0 0.0 0.0 0.00 0.00 0.00 39 1004.2
20260505182150 70 0 0.0 0.0 0.00 0.00 0.00 39 1004.2
20260505181650 70 0 0.0 0.0 0.00 0.00 0.00 39 1004.2
20260505181149 71 0 0.0 0.0 0.00 0.00 0.00 39 1004.2
20260505180649 72 0 0.0 0.0 0.00 0.00 0.00 38 1004.2
20260505180148 72 0 0.0 0.0 0.00 0.00 0.00 38 1004.2
20260505175648 73 0 0.0 0.0 0.00 0.00 0.00 38 1004.2
20260505175147 74 0 0.0 0.0 0.00 0.00 0.00 38 1004.2
20260505174647 75 0 0.0 0.0 0.00 0.00 0.00 38 1004.1
20260505174146 75 0 0.0 0.0 0.00 0.00 0.00 38 1004.2
20260505173646 76 0 0.0 0.0 0.00 0.00 0.00 37 1004.2
20260505173145 76 0 0.0 0.0 0.00 0.00 0.00 37 1004.2
20260505172645 77 0 0.0 0.0 0.00 0.00 0.00 37 1004.2
20260505172145 77 0 0.0 0.0 0.00 0.00 0.00 37 1004.3
20260505171644 78 0 0.0 0.0 0.00 0.00 0.00 37 1004.2
20260505171143 78 0 0.0 0.0 0.00 0.00 0.00 37 1004.2
20260505170643 79 0 0.0 0.0 0.00 0.00 0.00 37 1004.2
20260505170142 79 0 0.0 0.0 0.00 0.00 0.00 36 1004.2
20260505165642 80 0 0.0 0.0 0.00 0.00 0.00 36 1004.2
20260505165141 81 0 0.0 0.0 0.00 0.00 0.00 36 1004.3
20260505164641 81 0 0.0 0.0 0.00 0.00 0.00 36 1004.3
20260505164140 82 0 0.0 0.0 0.00 0.00 0.00 36 1004.3
20260505163640 82 0 0.0 0.0 0.00 0.00 0.00 36 1004.4
20260505163139 83 0 0.0 0.0 0.00 0.00 0.00 36 1004.5
20260505162639 83 0 0.0 0.0 0.00 0.00 0.00 36 1004.5
20260505162138 84 0 0.0 0.0 0.00 0.00 0.00 35 1004.5
20260505161638 85 0 0.0 0.0 0.00 0.00 0.00 35 1004.6
20260505161137 86 0 0.0 0.0 0.00 0.00 0.00 35 1004.5
20260505160637 87 0 0.0 0.0 0.00 0.00 0.00 34 1004.6
20260505160136 89 0 0.0 0.0 0.00 0.00 0.00 34 1004.7
20260505153133 89 0 0.0 0.0 0.00 0.00 0.00 34 1004.8
20260505152633 87 0 0.0 0.0 0.00 0.00 0.00 34 1004.9
20260505152132 86 0 0.0 0.0 0.00 0.00 0.00 35 1004.9
20260505151632 86 0 0.0 0.0 0.00 0.00 0.00 35 1005.0
20260505151131 86 0 0.0 0.0 0.00 0.00 0.00 35 1005.1
20260505150631 87 0 0.0 0.0 0.00 0.00 0.00 34 1005.1
20260505150130 87 0 0.0 0.0 0.00 0.00 0.00 34 1005.1
20260505140625 93 0 0.0 0.0 0.00 0.00 0.00 33 1005.5
20260505140124 93 0 0.0 0.0 0.00 0.00 0.00 33 1005.4
20260505130118 95 0 0.0 0.0 0.00 0.00 0.00 32 1005.8